Regional Weather Roundup
Issued by NWS

Home | Current Version | Previous Version | Text Only | Print | Product List | Glossary On
Versions: 1 2 3 4 5 6 7 8 9 10 11 12 13 14 15 16 17 18 19 20 21 22 23 24 25 26 27
000
ASUS44 KJAN 240210
RWRMS

MISSISSIPPI HOURLY WEATHER ROUNDUP
NATIONAL WEATHER SERVICE JACKSON MS
800 PM CST THU NOV 23 2017

NOTE: "FAIR: INDICATES FEW OR NO CLOUDS BELOW 12,000 FEET WITH NO
SIGNIFICANT WEATHER AND/OR OBSTRUCTIONS TO VISIBILITY.

MSZ001>002-007>008-010>013-018>021-025>028-034>036-240300-
NORTHWEST MISSISSIPPI

CITY           SKY/WX    TMP DP  RH WIND       PRES   REMARKS
BATESVILLE     FAIR      36  30  80 CALM      30.08R
CLARKSDALE       N/A     43  28  56 CALM      30.07S
CLEVELAND      FAIR      43  30  61 CALM      30.07S
GREENWOOD      CLEAR     37  29  72 CALM      30.08R
GREENVILLE     CLEAR     38  26  62 CALM      30.07S
OLIVE BRANCH   PTCLDY   N/A N/A N/A CALM      30.03R
OXFORD         FAIR      36  27  69 CALM      30.08R
TUNICA           N/A    N/A N/A N/A CALM      30.08R
WINONA         FAIR      34  32  90 CALM      30.07R
$$

MSZ003>006-009-014>017-022>024-029>033-037>039-240300-
NORTHEAST MISSISSIPPI

CITY           SKY/WX    TMP DP  RH WIND       PRES   REMARKS
ABERDEEN       FAIR      34  30  86 CALM      30.07S
COLUMBUS AFB   CLEAR     34  29  82 CALM      30.05S
CORINTH        FAIR      37  27  65 CALM      30.06R
GOLDN TRIANGLE CLEAR     43  23  45 CALM      30.06S
STARKVILLE     FAIR      34  30  86 CALM      30.07S
TUPELO         CLEAR     39  27  62 CALM      30.05S
$$

MSZ040-058-240300-
CENTRAL MISSISSIPPI

CITY           SKY/WX    TMP DP  RH WIND       PRES   REMARKS
JACKSON INTL   CLEAR     43  28  55 CALM      30.07R
JACKSON HAWKNS CLEAR     44  27  51 CALM      30.08R
MADISON        FAIR      37  30  75 CALM      30.07R
MERIDIAN KEY   CLEAR     38  34  85 SW3       30.06R
MERIDIAN NAS   CLEAR     40  31  70 CALM      30.06S
RAYMOND        FAIR      37  34  87 CALM      30.08R
VICKSBURG VKS  MOCLDY    39  32  75 CALM      30.10S
$$

MSZ059>079-240300-
SOUTH MISSISSIPPI

CITY           SKY/WX    TMP DP  RH WIND       PRES   REMARKS
COLUMBIA       FAIR      37  34  87 CALM      30.10R
HATTIESBURG    CLEAR     40  36  86 CALM      30.06R
LAUREL         FAIR      37  34  87 CALM      30.06R
MCCOMB         CLEAR     43  32  65 N5        30.06R
NATCHEZ        CLEAR     40  34  79 CALM      30.09R
PINE BELT      CLEAR     41  31  67 NW5       30.06R
$$

MSZ080>082-240300-
COASTAL MISSISSIPPI

CITY           SKY/WX    TMP DP  RH WIND       PRES   REMARKS
BAY ST LOUIS   CLEAR     37  36  93 CALM      30.04R
BILOXI         CLEAR     49  36  60 N6        30.02R
PASCAGOULA     CLEAR     46  34  62 NW5       30.03R
GULFPORT       CLEAR     44  37  76 NW6       30.02R
$$

LAZ007>009-015>016-023>026-240300-
NORTHEAST LOUISIANA

CITY           SKY/WX    TMP DP  RH WIND       PRES   REMARKS
BASTROP        FAIR      37  32  81 CALM      30.09S
TALLULAH/VBURG CLEAR     36  30  79 CALM      30.09S
VIDALIA          N/A    N/A N/A N/A MISG      30.09R
$$




USA.gov is the U.S. government's official web portal to all federal, state and local government web resources and services.